Flag for Saudi Arabia Weather past 2 weeks in Qatif, Saudi Arabia

Now
64 °F

Passing clouds.


Feels Like: 64 °F
Forecast: 58 / 67 °F
Wind: 17 mph from Northwest

Location: King Fahd International Airport

Current Time: Dec 22, 2014 at 10:59:05 AM

Latest Report: Dec 22, 2014 at 10:00 AM


Visibility: 5 mi

Pressure: 30.04 "Hg

Humidity: 56%

Dew point: 48 °F

Location of QatifLocation

Historic Weather in Qatif — Graph

°F

Qatif temperature yesterday

Maximum temperature yesterday: 81 °F (at 3:00 PM)
Minimum temperature yesterday: 54 °F (at 6:00 AM)
Average temperature yesterday: 66 °F

Past Weeks' High & Low Weather Summary

 TemperatureHumidityPressure
High81 °F (Dec 11, 1:00 PM)94% (Dec 10, 3:00 AM)30.27 "Hg (Dec 10, 3:00 AM)
Low50 °F (Dec 19, 4:00 AM)21% (Dec 12, 3:00 PM)29.86 "Hg (Dec 21, 3:00 PM)
Average65 °F63%30.11 "Hg
* Reported Dec 7 9:00 AM — Dec 22 9:00 AM, Qatif, Weather by CustomWeather, © 2014

Note: Actual official high and low records may vary slightly from our data, if they occured in-between our weather recording intervals... More about our weather records

Advertising

Qatif weather history for previous 24 hours

 ConditionsComfort  
Time TempWeatherWind HumidityBarometerVisibility
9:00 AM
Dec 22
63 °FPassing clouds.17 mph56%30.04 "Hg5 mi
8:00 AM59 °FBroken clouds.15 mph63%30.04 "HgN/A
7:00 AM59 °FBroken clouds.14 mph63%30.01 "HgN/A
6:00 AM59 °FPassing clouds.18 mph63%29.98 "HgN/A
5:00 AM59 °FClear.13 mph59%29.98 "Hg10 mi
4:00 AM59 °FClear.15 mph59%29.95 "Hg10 mi
3:00 AM61 °FClear.16 mph55%29.98 "Hg10 mi
2:00 AM61 °FClear.16 mph55%29.98 "Hg10 mi
1:00 AM63 °FClear.18 mph52%29.98 "Hg10 mi
12:00 AM64 °FClear.15 mph56%29.98 "Hg10 mi
11:00 PM
Dec 21
64 °FClear.15 mph68%29.98 "Hg5 mi
10:00 PM64 °FClear.15 mph68%29.98 "Hg10 mi
9:00 PM64 °FClear.13 mph73%29.98 "Hg10 mi
8:00 PM66 °FClear.10 mph56%29.95 "Hg10 mi
7:00 PM68 °FClear.13 mph46%29.95 "Hg10 mi
6:00 PM73 °FClear.14 mph31%29.92 "Hg10 mi
5:00 PM77 °FClear.6 mph28%29.89 "Hg10 mi
4:00 PM81 °FSunny.9 mph23%29.89 "Hg10 mi
3:00 PM81 °FSunny.14 mph23%29.86 "Hg4 mi
2:00 PM79 °FSunny.15 mph23%29.89 "Hg3 mi
1:00 PM79 °FSunny.17 mph23%29.89 "Hg3 mi
12:00 PM77 °FSunny.16 mph26%29.92 "Hg4 mi
11:00 AM73 °FSunny.18 mph29%29.98 "Hg10 mi
10:00 AM70 °FSunny.16 mph33%30.01 "Hg10 mi
Weather by CustomWeather, © 2014

See weather overviewHow to use our weather pages